CW7220 Weather Reports


time (UTC)temp
C
wind
direction
speed
KPH
gust
KPH
rain 1hr
cm
rain 24hr
cm
rain mn
cm
humidity
%
barometer
mb
20260506233937 17 30 3.2 0.0 0.00 0.00 0.00 87 1012.2
20260506232928 17 31 4.8 0.0 0.00 0.00 0.00 87 1012.1
20260506231925 17 30 1.6 0.0 0.00 0.00 0.00 87 1012.1
20260506224922 17 31 3.2 0.0 0.00 0.00 0.00 87 1012.1
20260506223917 17 30 4.8 0.0 0.00 0.00 0.00 86 1012.2
20260506222930 17 35 4.8 0.0 0.00 0.00 0.00 86 1012.2
20260506221923 17 36 3.2 0.0 0.00 0.00 0.00 86 1012.3
20260506213922 17 36 4.8 0.0 0.00 0.00 0.00 84 1012.1
20260506212934 17 36 4.8 0.0 0.00 0.00 0.00 83 1012.3
20260506211930 17 36 3.2 0.0 0.00 0.00 0.00 83 1012.3
20260506210922 17 36 4.8 0.0 0.00 0.00 0.00 82 1012.3
20260506204930 17 40 6.4 0.0 0.00 0.00 0.00 82 1012.2
20260506203926 17 19 6.4 0.0 0.00 0.00 0.00 81 1012.2
20260506202919 17 19 8.0 0.0 0.00 0.00 0.00 80 1012.1
20260506195922 17 19 8.0 0.0 0.00 0.00 0.00 79 1011.9
20260506194935 17 9 9.7 0.0 0.00 0.00 0.00 78 1011.7
20260506193927 17 11 6.4 0.0 0.00 0.00 0.00 77 1011.8
20260506191917 18 13 6.4 0.0 0.00 0.00 0.00 75 1011.5
20260506184937 18 34 6.4 0.0 0.00 0.00 0.00 73 1011.3
20260506183932 18 72 8.0 0.0 0.00 0.00 0.00 73 1011.2
20260506181920 18 80 9.7 0.0 0.00 0.00 0.00 72 1011.1
20260506180932 19 83 9.7 0.0 0.00 0.00 0.00 70 1011.0
20260506175926 19 97 9.7 0.0 0.00 0.00 0.00 68 1011.0
20260506174918 19 49 8.0 0.0 0.00 0.00 0.00 66 1011.0
20260506172932 19 46 12.9 0.0 0.00 0.00 0.00 64 1011.1
20260506171922 20 96 9.7 0.0 0.00 0.00 0.00 61 1011.0
20260506170934 20 79 11.3 0.0 0.00 0.00 0.00 61 1010.9
20260506164924 20 107 11.3 0.0 0.00 0.00 0.00 66 1010.8
20260506163918 20 90 14.5 0.0 0.00 0.00 0.00 68 1010.9
20260506162929 20 74 12.9 0.0 0.00 0.00 0.00 67 1010.9
20260506162002 20 87 16.1 0.0 0.00 0.00 0.00 67 1010.6
20260506160933 20 83 14.5 0.0 0.00 0.00 0.00 66 1010.7
20260506155923 20 76 16.1 0.0 0.00 0.00 0.00 66 1010.7
20260506152930 20 74 16.1 0.0 0.00 0.00 0.00 63 1010.6
20260506150936 20 106 14.5 0.0 0.00 0.00 0.00 63 1010.5
20260506145929 20 101 14.5 0.0 0.00 0.00 0.00 63 1010.5
20260506143919 21 103 11.3 0.0 0.00 0.00 0.00 61 1010.7
20260506141923 20 94 14.5 0.0 0.00 0.00 0.00 63 1011.0
20260506135930 20 78 9.7 0.0 0.00 0.00 0.00 63 1011.1
20260506134923 21 57 11.3 0.0 0.00 0.00 0.00 63 1011.2
20260506133934 21 31 11.3 0.0 0.00 0.00 0.00 64 1011.2
20260506132931 20 77 12.9 0.0 0.00 0.00 0.00 65 1011.3
20260506130918 20 49 11.3 0.0 0.00 0.00 0.00 64 1011.4
20260506125930 20 44 14.5 0.0 0.00 0.00 0.00 63 1011.4
20260506124925 20 92 14.5 0.0 0.00 0.00 0.00 63 1011.5
20260506123918 20 57 16.1 0.0 0.00 0.00 0.00 62 1011.4
20260506122930 21 99 12.9 0.0 0.00 0.00 0.00 62 1011.4
20260506121925 21 85 12.9 0.0 0.00 0.00 0.00 62 1011.6
20260506120918 21 71 11.3 0.0 0.00 0.00 0.00 61 1011.6
20260506115928 20 67 12.9 0.0 0.00 0.00 0.00 62 1011.6
20260506114919 20 94 11.3 0.0 0.00 0.00 0.00 62 1011.6
20260506113936 21 71 9.7 0.0 0.00 0.00 0.00 61 1011.6
20260506111921 20 111 14.5 0.0 0.00 0.00 0.00 64 1011.5
20260506110917 20 89 9.7 0.0 0.00 0.00 0.00 64 1011.6
20260506105927 20 42 11.3 0.0 0.00 0.00 0.00 64 1011.7
20260506104917 20 10 11.3 0.0 0.00 0.00 0.00 65 1011.6
20260506103928 20 30 16.1 0.0 0.00 0.00 0.00 67 1011.8
20260506100933 20 32 11.3 0.0 0.00 0.00 0.00 68 1011.8
20260506094920 20 47 9.7 0.0 0.00 0.00 0.00 68 1011.9
20260506093933 20 9 12.9 0.0 0.00 0.00 0.00 67 1011.8
20260506092924 20 86 12.9 0.0 0.00 0.00 0.00 67 1011.7
20260506091935 20 46 11.3 0.0 0.00 0.00 0.00 68 1011.7
20260506090931 20 24 14.5 0.0 0.00 0.00 0.00 68 1011.7
20260506085922 20 37 14.5 0.0 0.00 0.00 0.00 69 1011.6
20260506083929 19 22 16.1 0.0 0.00 0.00 0.00 70 1011.6
20260506081921 19 20 16.1 0.0 0.00 0.00 0.00 72 1011.5
20260506080931 19 22 16.1 0.0 0.00 0.00 0.00 74 1011.5
20260506072924 18 30 12.9 0.0 0.00 0.00 0.00 79 1011.7
20260506071936 18 15 14.5 0.0 0.00 0.00 0.00 81 1011.8
20260506070931 17 17 14.5 0.0 0.00 0.00 0.00 83 1011.7
20260506061920 16 17 1.6 0.0 0.00 0.00 0.00 89 1011.6
20260506060932 16 17 3.2 0.0 0.00 0.00 0.00 89 1011.6
20260506050933 15 17 1.6 0.0 0.00 0.00 0.00 88 1011.2
20260506044921 16 17 0.0 0.0 0.00 0.00 0.00 88 1011.1
20260506043933 16 17 0.0 0.0 0.00 0.00 0.00 89 1011.0
20260506042926 16 17 1.6 0.0 0.00 0.00 0.00 88 1010.9
20260506040919 16 17 3.2 0.0 0.00 0.00 0.00 88 1011.1
20260506035927 16 17 3.2 0.0 0.00 0.00 0.00 88 1011.1
20260506033935 16 17 3.2 0.0 0.00 0.00 0.00 87 1011.0
20260506032930 16 17 3.2 0.0 0.00 0.00 0.00 87 1011.0
20260506031922 16 17 3.2 0.0 0.00 0.00 0.00 87 1011.0
20260506030935 16 17 3.2 0.0 0.00 0.00 0.00 87 1011.0
20260506025932 16 17 4.8 0.0 0.00 0.00 0.00 87 1011.0
20260506024927 16 17 3.2 0.0 0.00 0.00 0.00 87 1011.0
20260506021930 16 17 4.8 0.0 0.00 0.00 0.00 87 1010.7
20260506020925 16 17 3.2 0.0 0.00 0.00 0.00 87 1010.7
20260506015935 16 17 4.8 0.0 0.00 0.00 0.00 87 1010.7
20260506014928 16 17 4.8 0.0 0.00 0.00 0.00 87 1010.7
20260506013923 16 28 8.0 0.0 0.00 0.00 0.00 87 1010.7
20260506012936 16 28 6.4 0.0 0.00 0.00 0.00 86 1010.8
20260506011928 16 25 6.4 0.0 0.00 0.00 0.00 86 1010.9
20260506005919 17 21 4.8 0.0 0.00 0.00 0.00 85 1010.9
20260506004931 17 28 3.2 0.0 0.00 0.00 0.00 85 1011.0
20260506003924 16 28 4.8 0.0 0.00 0.00 0.00 84 1011.2
20260506001936 16 13 8.0 0.0 0.00 0.00 0.00 83 1011.2
20260505235920 16 14 4.8 0.0 0.00 0.00 0.00 82 1011.4
20260505234932 17 351 3.2 0.0 0.00 0.00 0.00 82 1011.6